TimeCST,TemperatureF,Dew PointF,Humidity,Sea Level PressureIn,VisibilityMPH,Wind Direction,Wind SpeedMPH,Gust SpeedMPH,PrecipitationIn,Events,Conditions,WindDirDegrees,DateUTC
12:53 AM,34.0,18.0,52,30.18,10.0,NNW,4.6,-,N/A,,Clear,330,2014-01-16 06:53:00
1:53 AM,28.9,19.0,67,30.19,10.0,Calm,Calm,-,N/A,,Clear,0,2014-01-16 07:53:00
2:53 AM,30.9,18.0,59,30.18,10.0,NNW,4.6,-,N/A,,Clear,340,2014-01-16 08:53:00
3:53 AM,28.9,18.0,64,30.18,10.0,NNW,3.5,-,N/A,,Clear,340,2014-01-16 09:53:00
4:53 AM,26.1,18.0,71,30.18,10.0,NNW,3.5,-,N/A,,Clear,340,2014-01-16 10:53:00
5:53 AM,26.1,18.0,71,30.19,10.0,Calm,Calm,-,N/A,,Clear,0,2014-01-16 11:53:00
6:53 AM,23.0,18.0,81,30.22,10.0,Calm,Calm,-,N/A,,Clear,0,2014-01-16 12:53:00
7:53 AM,32.0,19.0,59,30.22,10.0,NNW,4.6,-,N/A,,Clear,340,2014-01-16 13:53:00
8:53 AM,37.9,15.1,39,30.24,10.0,Calm,Calm,-,N/A,,Clear,0,2014-01-16 14:53:00
9:53 AM,42.1,10.9,28,30.25,10.0,NNE,4.6,-,N/A,,Clear,30,2014-01-16 15:53:00
10:53 AM,43.0,10.0,26,30.22,10.0,Variable,4.6,-,N/A,,Clear,0,2014-01-16 16:53:00
11:53 AM,48.0,12.0,24,30.19,10.0,NW,8.1,-,N/A,,Clear,320,2014-01-16 17:53:00
12:53 PM,50.0,10.9,21,30.13,10.0,Variable,4.6,-,N/A,,Clear,0,2014-01-16 18:53:00
1:53 PM,52.0,12.0,20,30.12,10.0,North,-9999.0,-,N/A,,Clear,0,2014-01-16 19:53:00
2:53 PM,54.0,12.9,20,30.11,10.0,West,5.8,-,N/A,,Clear,270,2014-01-16 20:53:00
3:53 PM,53.1,14.0,21,30.11,10.0,SSW,8.1,-,N/A,,Clear,210,2014-01-16 21:53:00
4:53 PM,48.0,24.1,39,30.13,10.0,South,8.1,-,N/A,,Clear,180,2014-01-16 22:53:00
5:53 PM,44.1,24.1,45,30.12,10.0,SSW,6.9,-,N/A,,Clear,200,2014-01-16 23:53:00
6:53 PM,39.0,26.1,60,30.14,10.0,South,4.6,-,N/A,,Clear,190,2014-01-17 00:53:00
7:53 PM,34.0,28.0,79,30.15,10.0,Calm,Calm,-,N/A,,Clear,0,2014-01-17 01:53:00
8:53 PM,32.0,27.0,82,30.15,10.0,Calm,Calm,-,N/A,,Clear,0,2014-01-17 02:53:00
9:53 PM,30.9,28.0,89,30.15,10.0,Calm,Calm,-,N/A,,Clear,0,2014-01-17 03:53:00
10:53 PM,30.9,28.0,89,30.14,10.0,Calm,Calm,-,N/A,,Clear,0,2014-01-17 04:53:00
11:53 PM,30.9,28.0,89,30.12,10.0,Calm,Calm,-,N/A,,Clear,0,2014-01-17 05:53:00